{"data":{"norad_id":67992,"epoch":"2026-05-24T22:32:08.324736Z","epoch_age_seconds":87092,"freshness":"FRESH","line1":"1 67992U 26039G   26144.93898524  .00008503  00000+0  31808-3 0  9996","line2":"2 67992  43.0042 338.4271 0001515 273.5106  86.5572 15.27589408 13367","mean_motion":15.27589408,"eccentricity":0.0001515,"inclination_deg":43.0042,"raan_deg":338.4271,"arg_perigee_deg":273.5106,"mean_anomaly_deg":86.5572,"bstar":0.00031808,"rev_number":1336,"period_min":94.26616815086,"perigee_km":481.98145982205,"apogee_km":484.0603906734,"semimajor_km":6861.1579252477,"source":"CELESTRAK","updated_at":"2026-05-25T13:38:21.780042Z"}}